This is the latest recevied weather packets stored in our database for station/object VK6DUG. If no packets are shown the sender has not sent any weather packets the latest 1 day(s).
| Time | Temp. | Humidity | Pressure | Rain* | Wind** | Luminosity | Snow |
|---|---|---|---|---|---|---|---|
| 1778055622 | 21.67° C | 51% | 1031 hPa | 0 mm | - | 102 W/m² | - |
| 1778054417 | 21.67° C | 50% | 1031 hPa | 0 mm | - | 164 W/m² | - |
| 1778053230 | 22.22° C | 50% | 1031 hPa | 0 mm | - | 218 W/m² | - |
| 1778051423 | 22.22° C | 50% | 1031 hPa | 0 mm | - | 302 W/m² | - |
| 1778050217 | 22.22° C | 50% | 1030.9 hPa | 0 mm | - | 355 W/m² | - |
| 1778047826 | 21.67° C | 52% | 1031 hPa | 0 mm | - | 483 W/m² | - |
| 1778047225 | 21.67° C | 53% | 1031.1 hPa | 0 mm | - | 284 W/m² | - |
| 1778046018 | 22.22° C | 53% | 1031.1 hPa | 0 mm | - | 532 W/m² | - |
| 1778044833 | 22.22° C | 53% | 1031.1 hPa | 0 mm | - | 544 W/m² | - |
| 1778044230 | 22.22° C | 52% | 1031.1 hPa | 0 mm | - | 538 W/m² | - |
| 1778043628 | 22.22° C | 53% | 1031.3 hPa | 0 mm | - | 543 W/m² | - |
| 1778043025 | 21.11° C | 55% | 1031.4 hPa | 0 mm | - | 549 W/m² | - |
| 1778041820 | 21.11° C | 56% | 1031.7 hPa | 0 mm | - | 546 W/m² | - |
| 1778040032 | 20.56° C | 59% | 1032.2 hPa | 0 mm | - | 536 W/m² | - |
| 1778039430 | 20.56° C | 59% | 1032.4 hPa | 0 mm | - | 537 W/m² | - |
| 1778038827 | 20° C | 60% | 1032.4 hPa | 0 mm | - | 538 W/m² | - |
| 1778037623 | 19.44° C | 61% | 1032.6 hPa | 0 mm | - | 523 W/m² | - |
| 1778037019 | 19.44° C | 62% | 1032.7 hPa | 0 mm | - | 507 W/m² | - |
| 1778036416 | 19.44° C | 61% | 1032.7 hPa | 0 mm | - | 487 W/m² | - |
| 1778035230 | 18.33° C | 64% | 1033 hPa | 0 mm | - | 459 W/m² | - |
| 1778034628 | 18.33° C | 64% | 1032.8 hPa | 0 mm | - | 442 W/m² | - |
| 1778034025 | 18.33° C | 65% | 1033 hPa | 0 mm | - | 418 W/m² | - |
| 1778033422 | 17.78° C | 67% | 1033 hPa | 0 mm | - | 394 W/m² | - |
| 1778032820 | 17.78° C | 68% | 1033.1 hPa | 0 mm | - | 368 W/m² | - |
| 1778031636 | 17.22° C | 70% | 1033 hPa | 0 mm | - | 315 W/m² | - |
* Rain latest hour (hover to see other rain measurements)
** Current wind speed in m/s (hover to see current wind gust speed)